sat.trackr.live / text

‹ back to catalog

STARLINK-36556

NORAD 67642 · 2026-020AB

PAYLOAD ACTIVE UNKNOWN

§ Identity

Operator
Country
US
Launch date
2026-01-30
Launch site
AFETR
Launch vehicle
Mass (kg)
RCS (m²)

Purposes: comms

External: N2YO · Heavens-Above · Gunter

§ Orbital elements

Epoch: 2026-05-25T02:02:56.430240Z

Period
94.27 min
Inclination
43.0025°
Eccentricity
0.0000344
Mean motion
15.27592852 rev/d
Perigee alt
482.8 km
Apogee alt
483.2 km
Semi-major
6,861.1 km
B*
4.3499e-4
RAAN
68.6479°
Arg perigee
194.2314°
Mean anomaly
165.8528°
Rev number
1,779

§ Raw data

STARLINK-365561 67642U 26020AB  26145.08537535  .00011732  00000+0  43499-3 0  99942 67642  43.0025  68.6479 0000344 194.2314 165.8528 15.27592852 17791

JSON: /api/v1/satellites/67642 · /tle

For live sub-satellite position, see the globe view (requires WebGL).

§ Visibility from observer

Set your observer location to see the next 7 days of passes ≥ 10°. The values pass through the URL so the page stays shareable.

No JS? Fill the form by hand. The geolocation button needs JavaScript.